EJA111 KEYW-MYGF

Flight info

Callsign EJA111
Flight time 0h 35m
Altitude 21000
Route FLL DCT
Aircraft GLEX/M-VGDW/C

Departure

Time 2026-05-07 01:46
Airport Key West International Airport (KEYW)

Arrival

Time 2026-05-07 02:21
Airport Grand Bahama International Airport (MYGF)
Time Latitude Longitude Altitude Speed Heading
2026-05-07 01:36 24.55438 -81.75747 9 ft 0 kts
2026-05-07 01:43 24.55445 -81.75747 9 ft 3 kts
2026-05-07 01:44 24.55489 -81.75738 9 ft 9 kts 13°
2026-05-07 01:44 24.55531 -81.75673 9 ft 14 kts 90°
2026-05-07 01:44 24.55532 -81.75538 9 ft 20 kts 89°
2026-05-07 01:44 24.55532 -81.75411 9 ft 0 kts 90°
2026-05-07 01:45 24.55532 -81.75382 9 ft 6 kts 90°
2026-05-07 01:45 24.55531 -81.75305 9 ft 13 kts 91°
2026-05-07 01:45 24.55587 -81.75237 9 ft 17 kts 344°
2026-05-07 01:45 24.55617 -81.75382 9 ft 30 kts 270°
2026-05-07 01:46 24.55616 -81.75918 9 ft 115 kts 271°
2026-05-07 01:46 24.55615 -81.77017 349 ft 161 kts 269°
2026-05-07 01:46 24.55679 -81.78336 909 ft 191 kts 287°
2026-05-07 01:46 24.56722 -81.79343 1076 ft 240 kts 354°
2026-05-07 01:47 24.58532 -81.79134 1703 ft 274 kts
2026-05-07 01:47 24.60468 -81.79342 2784 ft 289 kts 343°
2026-05-07 01:47 24.62491 -81.79989 2959 ft 336 kts 354°
2026-05-07 01:47 24.64785 -81.79647 2968 ft 326 kts 22°
2026-05-07 01:48 24.66584 -81.78329 3051 ft 295 kts 47°
2026-05-07 01:48 24.67929 -81.76875 3856 ft 259 kts 44°
2026-05-07 01:48 24.69105 -81.75317 3562 ft 280 kts 61°
2026-05-07 01:48 24.70215 -81.73595 3932 ft 268 kts 47°
2026-05-07 01:49 24.71639 -81.72335 4298 ft 259 kts 39°
2026-05-07 01:49 24.72940 -81.70914 4327 ft 264 kts 44°
2026-05-07 01:49 24.74219 -81.69447 4434 ft 272 kts 45°
2026-05-07 01:49 24.75531 -81.67921 5375 ft 278 kts 46°
2026-05-07 01:50 24.76833 -81.66403 6688 ft 274 kts 46°
2026-05-07 01:50 24.77876 -81.65185 7575 ft 278 kts 46°
2026-05-07 01:50 24.77952 -81.65096 7635 ft 279 kts 46°
2026-05-07 01:50 24.79279 -81.63548 8774 ft 287 kts 46°
2026-05-07 01:51 24.80648 -81.61950 9964 ft 291 kts 46°
2026-05-07 01:51 24.82029 -81.60336 11053 ft 297 kts 46°
2026-05-07 01:51 24.83429 -81.58664 12064 ft 305 kts 51°
2026-05-07 01:51 24.84853 -81.56950 13021 ft 310 kts 36°
2026-05-07 01:52 24.86401 -81.55321 13993 ft 315 kts 44°
2026-05-07 01:52 24.87947 -81.53602 14913 ft 321 kts 44°
2026-05-07 01:52 24.89533 -81.51818 15800 ft 329 kts 44°
2026-05-07 01:52 24.91124 -81.50022 16673 ft 335 kts 44°
2026-05-07 01:53 24.92767 -81.48165 17543 ft 342 kts 45°
2026-05-07 01:53 24.94433 -81.46281 18366 ft 348 kts 45°
2026-05-07 01:53 24.96125 -81.44370 19183 ft 352 kts 45°
2026-05-07 01:53 24.97844 -81.42426 19971 ft 358 kts 45°
2026-05-07 01:54 24.99582 -81.40459 20725 ft 363 kts 45°
2026-05-07 01:54 25.01373 -81.38431 21064 ft 384 kts 45°
2026-05-07 01:54 25.03302 -81.36245 21149 ft 406 kts 45°
2026-05-07 01:54 25.05356 -81.33915 21169 ft 435 kts 46°
2026-05-07 01:55 25.07502 -81.31479 21164 ft 449 kts 46°
2026-05-07 01:55 25.09684 -81.29002 21111 ft 455 kts 46°
2026-05-07 01:55 25.11889 -81.26496 21089 ft 454 kts 46°
2026-05-07 01:55 25.14100 -81.23984 21083 ft 453 kts 46°
2026-05-07 01:56 25.16281 -81.21503 21082 ft 452 kts 46°
2026-05-07 01:56 25.18482 -81.18999 21080 ft 451 kts 46°
2026-05-07 01:56 25.20664 -81.16515 21080 ft 450 kts 46°
2026-05-07 01:56 25.22833 -81.14046 21080 ft 450 kts 46°
2026-05-07 01:57 25.25011 -81.11563 21080 ft 449 kts 46°
2026-05-07 01:57 25.27175 -81.09095 21082 ft 448 kts 46°
2026-05-07 01:57 25.29350 -81.06614 21083 ft 448 kts 46°
2026-05-07 01:57 25.31532 -81.04124 21084 ft 449 kts 46°
2026-05-07 01:58 25.33739 -81.01603 21085 ft 450 kts 46°
2026-05-07 01:58 25.35931 -80.99098 21086 ft 452 kts 46°
2026-05-07 01:58 25.38126 -80.96588 21087 ft 453 kts 46°
2026-05-07 01:58 25.40338 -80.94057 21088 ft 454 kts 46°
2026-05-07 01:59 25.42517 -80.91563 21089 ft 455 kts 46°
2026-05-07 01:59 25.44741 -80.89016 21090 ft 455 kts 46°
2026-05-07 01:59 25.46941 -80.86495 21091 ft 456 kts 46°
2026-05-07 01:59 25.49134 -80.83981 21091 ft 457 kts 46°
2026-05-07 02:00 25.51349 -80.81439 21092 ft 457 kts 46°
2026-05-07 02:00 25.53573 -80.78887 21093 ft 458 kts 46°
2026-05-07 02:00 25.55784 -80.76348 21093 ft 458 kts 46°
2026-05-07 02:00 25.58006 -80.73795 21093 ft 459 kts 46°
2026-05-07 02:01 25.60225 -80.71242 21093 ft 459 kts 45°
2026-05-07 02:01 25.62485 -80.68642 21093 ft 460 kts 45°
2026-05-07 02:01 25.64691 -80.66103 21093 ft 460 kts 45°
2026-05-07 02:01 25.66919 -80.63537 21094 ft 460 kts 45°
2026-05-07 02:02 25.69150 -80.60965 21094 ft 460 kts 45°
2026-05-07 02:02 25.71372 -80.58404 21095 ft 461 kts 45°
2026-05-07 02:02 25.73585 -80.55849 21096 ft 461 kts 45°
2026-05-07 02:02 25.75804 -80.53288 21097 ft 461 kts 45°
2026-05-07 02:03 25.78016 -80.50733 21098 ft 461 kts 45°
2026-05-07 02:03 25.80247 -80.48154 21098 ft 461 kts 45°
2026-05-07 02:03 25.82482 -80.45569 21098 ft 461 kts 45°
2026-05-07 02:03 25.84715 -80.42986 21098 ft 461 kts 45°
2026-05-07 02:04 25.86973 -80.40371 21099 ft 461 kts 45°
2026-05-07 02:04 25.89199 -80.37792 21099 ft 461 kts 45°
2026-05-07 02:04 25.91418 -80.35220 21100 ft 461 kts 45°
2026-05-07 02:04 25.93651 -80.32629 21099 ft 461 kts 46°
2026-05-07 02:05 25.95897 -80.30022 21099 ft 461 kts 46°
2026-05-07 02:05 25.98152 -80.27404 21100 ft 461 kts 46°
2026-05-07 02:05 26.00371 -80.24826 21100 ft 461 kts 46°
2026-05-07 02:05 26.02579 -80.22259 21101 ft 461 kts 46°
2026-05-07 02:06 26.04809 -80.19665 21102 ft 461 kts 46°
2026-05-07 02:06 26.06957 -80.17005 21062 ft 462 kts 53°
2026-05-07 02:06 26.08313 -80.13822 21108 ft 461 kts 68°
2026-05-07 02:06 26.09465 -80.10480 21100 ft 461 kts 69°
2026-05-07 02:07 26.10589 -80.07134 21097 ft 461 kts 69°
2026-05-07 02:07 26.12840 -80.00419 21090 ft 461 kts 69°
2026-05-07 02:07 26.13968 -79.97050 21089 ft 461 kts 69°
2026-05-07 02:08 26.15092 -79.93689 21088 ft 461 kts 69°
2026-05-07 02:08 26.16240 -79.90253 21086 ft 461 kts 69°
2026-05-07 02:08 26.17366 -79.86880 21087 ft 461 kts 69°
2026-05-07 02:08 26.18486 -79.83517 21088 ft 461 kts 69°
2026-05-07 02:09 26.19593 -79.80190 21089 ft 461 kts 69°
2026-05-07 02:09 26.20702 -79.76857 21093 ft 461 kts 69°
2026-05-07 02:09 26.21831 -79.73456 21093 ft 461 kts 69°
2026-05-07 02:09 26.22949 -79.70086 21094 ft 461 kts 69°
2026-05-07 02:10 26.24080 -79.66676 21094 ft 461 kts 69°
2026-05-07 02:10 26.25178 -79.63364 21094 ft 461 kts 69°
2026-05-07 02:10 26.26300 -79.59972 21094 ft 462 kts 69°
2026-05-07 02:10 26.27407 -79.56629 21095 ft 448 kts 69°
2026-05-07 02:11 26.28441 -79.53502 21075 ft 416 kts 69°
2026-05-07 02:11 26.29404 -79.50584 21070 ft 387 kts 69°
2026-05-07 02:11 26.30286 -79.47903 21069 ft 361 kts 69°
2026-05-07 02:11 26.31133 -79.45333 21072 ft 346 kts 69°
2026-05-07 02:12 26.31964 -79.42815 21165 ft 349 kts 69°
2026-05-07 02:12 26.32824 -79.40210 20741 ft 372 kts 69°
2026-05-07 02:12 26.33746 -79.37427 20335 ft 392 kts 69°
2026-05-07 02:12 26.34714 -79.34506 19922 ft 407 kts 70°
2026-05-07 02:13 26.35673 -79.31619 19481 ft 396 kts 70°
2026-05-07 02:13 26.36608 -79.28803 18981 ft 382 kts 70°
2026-05-07 02:13 26.37516 -79.26068 18478 ft 370 kts 70°
2026-05-07 02:13 26.38397 -79.23417 17976 ft 360 kts 69°
2026-05-07 02:14 26.39256 -79.20837 17473 ft 351 kts 69°
2026-05-07 02:14 26.40098 -79.18305 16962 ft 344 kts 69°
2026-05-07 02:14 26.40921 -79.15834 16454 ft 337 kts 69°
2026-05-07 02:14 26.41717 -79.13442 15954 ft 332 kts 69°
2026-05-07 02:15 26.42521 -79.11029 15443 ft 327 kts 69°
2026-05-07 02:15 26.44843 -79.08405 14934 ft 323 kts 68°
2026-05-07 02:15 26.45640 -79.06084 14440 ft 319 kts 69°
2026-05-07 02:15 26.46430 -79.03783 13937 ft 315 kts 69°
2026-05-07 02:16 26.47209 -79.01516 13436 ft 312 kts 68°
2026-05-07 02:16 26.47975 -78.99288 12937 ft 309 kts 68°
2026-05-07 02:16 26.48740 -78.97063 12436 ft 307 kts 68°
2026-05-07 02:16 26.49360 -78.94786 11875 ft 306 kts 84°
2026-05-07 02:17 26.48977 -78.92448 10952 ft 316 kts 116°
2026-05-07 02:17 26.47678 -78.90562 9813 ft 307 kts 134°
2026-05-07 02:17 26.46703 -78.88566 8622 ft 297 kts 100°
2026-05-07 02:17 26.46856 -78.86363 7453 ft 288 kts 68°
2026-05-07 02:18 26.48004 -78.84626 6286 ft 278 kts 40°
2026-05-07 02:18 26.49135 -78.82956 5111 ft 274 kts 60°
2026-05-07 02:18 26.50080 -78.81158 3918 ft 271 kts 60°
2026-05-07 02:18 26.50988 -78.79383 2742 ft 266 kts 53°
2026-05-07 02:19 26.52020 -78.77756 1858 ft 245 kts 59°
2026-05-07 02:19 26.52576 -78.76147 1720 ft 204 kts 58°
2026-05-07 02:19 26.53368 -78.74918 1033 ft 190 kts 66°
2026-05-07 02:19 26.53793 -78.73678 623 ft 152 kts 62°
2026-05-07 02:20 26.54289 -78.72759 434 ft 123 kts 62°
2026-05-07 02:20 26.54692 -78.71943 201 ft 115 kts 61°
2026-05-07 02:20 26.55069 -78.71169 60 ft 112 kts 60°
2026-05-07 02:20 26.55445 -78.70412 20 ft 105 kts 61°
2026-05-07 02:21 26.55776 -78.69750 18 ft 88 kts 60°
2026-05-07 02:21 26.56020 -78.69248 18 ft 59 kts 63°
2026-05-07 02:21 26.56158 -78.68971 18 ft 36 kts 61°
2026-05-07 02:21 26.56165 -78.68793 17 ft 21 kts 155°
2026-05-07 02:22 26.56056 -78.68900 18 ft 26 kts 242°
2026-05-07 02:22 26.55957 -78.69102 18 ft 32 kts 241°
2026-05-07 02:22 26.55834 -78.69341 18 ft 38 kts 239°
2026-05-07 02:22 26.55645 -78.69581 18 ft 44 kts 220°
2026-05-07 02:23 26.55395 -78.69825 18 ft 50 kts 222°
2026-05-07 02:23 26.55113 -78.70096 17 ft 55 kts 218°
2026-05-07 02:23 26.54920 -78.70249 19 ft 17 kts 186°
2026-05-07 02:23 26.54882 -78.70300 18 ft 0 kts 269°
2026-05-07 02:24 26.54882 -78.70303 18 ft 2 kts 269°
2026-05-07 02:24 26.54881 -78.70314 18 ft 0 kts 268°